Date,TemperatureHighF,TemperatureAvgF,TemperatureLowF,DewpointHighF,DewpointAvgF,DewpointLowF,HumidityHigh,HumidityAvg,HumidityLow,PressureMaxIn,PressureMinIn,WindSpeedMaxMPH,WindSpeedAvgMPH,GustSpeedMaxMPH,PrecipitationSumIn
2013-4-1,69.0,58.2,52.0,36.0,30.2,26.0,45,35,22,30.05,29.94,23,8,33,0.00
2013-4-2,80.0,63.1,48.0,36.0,29.0,22.0,51,31,12,30.10,29.97,13,4,22,0.00
2013-4-4,71.0,65.9,63.0,37.0,32.9,30.0,38,29,27,29.97,29.94,19,15,34,0.00
2013-4-5,81.0,68.0,55.0,37.0,31.4,26.0,40,27,13,30.03,29.89,18,6,31,0.00
2013-4-6,83.0,65.6,49.0,35.0,30.4,24.0,50,29,13,30.05,29.88,10,4,18,0.00
2013-4-7,85.0,68.5,57.0,35.0,30.4,26.0,38,25,12,29.97,29.72,23,7,37,0.00
2013-4-8,65.0,57.6,46.0,36.0,22.8,11.0,67,27,18,29.84,29.54,26,18,42,0.01
2013-4-9,71.0,58.4,49.0,17.0,9.7,-4.0,27,16,5,29.97,29.83,35,23,44,0.00
2013-4-10,86.0,67.9,52.0,25.0,12.9,7.0,21,13,7,30.19,29.97,22,8,32,0.00
2013-4-11,83.0,67.6,51.0,34.0,23.6,19.0,35,21,10,29.98,29.72,14,4,17,0.00
2013-4-12,88.0,75.9,59.0,30.0,26.3,23.0,32,17,11,29.90,29.75,19,7,25,0.00
2013-4-13,88.0,74.9,62.0,32.0,26.7,15.0,31,17,11,29.82,29.59,27,9,40,0.00
2013-4-14,86.0,73.1,60.0,33.0,29.2,25.0,31,20,13,29.72,29.52,33,14,51,0.00
2013-4-15,74.0,64.2,55.0,29.0,24.2,18.0,32,22,14,29.69,29.58,32,21,40,0.00
2013-4-16,66.0,54.5,43.0,25.0,17.1,10.0,38,24,13,30.01,29.67,22,13,36,0.00
2013-4-17,67.0,58.1,48.0,14.0,6.2,0.0,24,13,7,30.22,30.01,21,10,29,0.00
2013-4-18,73.0,58.0,46.0,9.0,5.3,0.0,19,13,6,30.33,30.19,15,7,20,0.00
2013-4-19,82.0,60.7,40.0,20.0,8.1,3.0,25,14,6,30.27,30.00,16,5,25,0.00
2013-4-20,87.0,78.5,68.0,34.0,23.9,16.0,25,15,7,29.99,29.93,14,8,19,0.00
2013-4-21,93.0,72.5,51.0,31.0,26.0,19.0,39,20,9,30.06,29.88,16,4,24,0.00
2013-4-22,94.0,76.8,54.0,29.0,25.9,22.0,34,17,8,29.98,29.74,15,4,27,0.00
2013-4-23,83.0,72.8,61.0,28.0,13.5,8.0,18,11,7,30.05,29.78,23,9,33,0.00
2013-4-24,81.0,68.1,55.0,22.0,11.9,7.0,22,12,6,29.91,29.83,15,6,20,0.00
2013-4-25,72.0,67.5,64.0,29.0,26.8,24.0,24,22,20,30.00,29.88,8,5,14,0.00
2013-4-26,90.0,72.6,50.0,33.0,23.9,10.0,45,20,5,30.17,29.98,12,4,18,0.00
2013-4-27,95.0,76.6,55.0,32.0,23.5,15.0,40,17,6,30.20,30.01,18,4,21,0.00
2013-4-28,98.0,80.8,58.0,30.0,25.0,14.0,32,15,5,30.04,29.84,17,4,25,0.00
2013-4-29,99.0,87.0,62.0,39.0,29.4,21.0,32,14,6,29.91,29.70,24,6,36,0.00
2013-4-30,95.0,81.5,66.0,37.0,30.8,24.0,28,17,8,29.77,29.61,23,7,27,0.00